Location: Namasale
(1.5000°N, 32.6167°E)
Time: 19:20:00
(UTC+00:00)

Courier 1B - Pass Details

Date: 22 April 2021
Orbit: 962 x 1209 km, 28.3° (Epoch: 10 May)

Event Time Altitude Azimuth Distance (km) Brightness Sun altitude
Rises 06:05:08 0° 245° (WSW) 4,029 10.2 33.7°
Reaches altitude 10° 06:08:01 10° 247° (WSW) 3,036 9.7 34.4°
Maximum altitude 06:15:28 70° 329° (NNW) 1,154 8.4 36.3°
Drops below altitude 10° 06:22:26 10° 53° (NE) 2,846 11.0 37.9°
Sets 06:25:05 0° 55° (NE) 3,764 11.4 38.6°
